Cosmos 2219 Rocket - Orbit

View from above orbital plane
View from above orbital plane
View from above satellite
View from above satellite

Ground track
Ground track

The orbit data is extracted from the following two-line orbital elements,

1 22220U 92076B   13142.81813966  .00000239  00000-0  14480-3 0   428
2 22220 071.0011 307.5986 0012581 008.3004 090.3624 14.16256247 60312
Epoch (UTC): 22 May 2013 19:38:07
Eccentricity: 0.0012581
inclination: 71.0011°
perigee height: 829 km
apogee height: 847 km
right ascension of ascending node: 307.5986°
argument of perigee: 8.3004°
revolutions per day: 14.16256247
mean anomaly at epoch: 90.3624°
orbit number at epoch: 6031

The dashed part of the orbit path shows where the satellite is in the earth's shadow,  

Developed and maintained by Chris Peat, Heavens-Above GmbH. Please read the updated FAQ before sending e-mail. Imprint. DLR